Regional Weather Roundup
Issued by NWS Cleveland, OH

Home | Current Version | Previous Version | Text Only | Print | Product List | Glossary Off
Versions: 1 2 3 4 5 6 7 8 9 10 11 12 13 14 15 16 17 18 19 20 21 22 23 24 25 26 27 28 29 30 31 32 33 34 35 36 37 38 39 40 41 42 43 44 45 46 47 48 49 50

000
ASUS41 KCLE 301610
RWRCLE
OHIO REGIONAL WEATHER ROUNDUP
NATIONAL WEATHER SERVICE WILMINGTON, OH
1200 PM EDT TUE SEP 30 2014

NOTE: "FAIR" INDICATES FEW OR NO CLOUDS BELOW 12,000 FEET WITH NO
SIGNIFICANT WEATHER AND/OR OBSTRUCTIONS TO VISIBILITY.

OHZ001>008-015>018-024>027-034-035-043-044-301700-
   NORTHWEST OHIO

CITY           SKY/WX    TMP DP  RH WIND       PRES   REMARKS
DEFIANCE       CLOUDY    55  47  74 N9        29.99S
FINDLAY        CLOUDY    55  51  86 NW10      29.97R
TOLEDO EXPRESS CLOUDY    55  49  80 N10       29.97S
TOLEDO METCALF CLOUDY    56  49  77 NW5       29.97S
LIMA           CLOUDY    55  52  89 N9        29.98R
$$

OHZ009>014-019>023-028>033-038-089-301700-
   NORTHEAST OHIO

CITY           SKY/WX    TMP DP  RH WIND       PRES   REMARKS
CLE-HOPKINS    CLOUDY    59  57  93 N10       29.94S FOG
CLE-LAKEFRONT  CLOUDY    60  57  89 N8        29.91S
CUY CO. ARPT   CLOUDY    61  61 100 N12       29.92S FOG
LORAIN-ELYRIA  CLOUDY    61  56  83 N9        29.94S HAZE
ASHTABULA      CLOUDY    60  58  92 SE5       29.91S
AKRON-CANTON   LGT RAIN  63  58  83 CALM      29.90F
WOOSTER        CLOUDY    62  59  90 NW7       29.93R FOG
MANSFIELD      RAIN      57  57 100 NW10      29.94R VSB 1
YOUNGSTOWN     LGT RAIN  58  57  97 SE6       29.92F FOG
$$

OHZ042-051>053-060>062-070>072-077>081-301700-
  SOUTHWEST OHIO

CITY           SKY/WX    TMP DP  RH WIND       PRES   REMARKS
CINC-COVINGTON MOSUNNY   75  55  49 NW5       29.94S
CINC-LUNKEN    SUNNY     75  57  53 CALM      29.94F
HAMILTON       CLOUDY    69  58  67 N7        29.96S
DAYTON         CLOUDY    63  58  83 N10       29.96S
WRIGHT-PAT AFB CLOUDY    64  58  82 NW7       29.95R FOG
DAYTON GENERAL PTSUNNY   67  60  78 VRB7      29.95S HAZE
WILMINGTON     SUNNY     71  55  56 VRB6      29.93F
$$

OHZ036-037-039>041-045>050-054>059-063>069-073>076-082>088-301700-
  CENTRAL AND SOUTHEAST OHIO

CITY           SKY/WX    TMP DP  RH WIND       PRES   REMARKS
COLUMBUS       CLOUDY    63  58  83 CALM      29.93R
OSU AIRPORT    CLOUDY    63  59  87 CALM      29.94R FOG
BOLTON FIELD   RAIN      63  59  88 SW3       29.94S
RICKENBACK AFB PTSUNNY   63  55  76 W8        29.95R
NEWARK         LGT RAIN  60  57  89 S8        29.92S FOG
MARION         CLOUDY    58  55  90 N10       29.95R FOG
LANCASTER      LGT RAIN  63  59  87 CALM      29.93S
ZANESVILLE     CLOUDY    61  57  87 CALM      29.94R
NEW PHILLY     LGT RAIN  60  59  96 SE7       29.92F FOG
$$



USA.gov is the U.S. government's official web portal to all federal, state and local government web resources and services.